Location: El Álamo
(40.2307°N, 3.9945°W)
Time: 02:19:56
(UTC+00:00)

Cosmos-2242 - Pass Details

Date: 19 May 2025
Orbit: 569 x 594 km, 82.5° (Epoch: 24 June)

Event Time Altitude Azimuth Distance (km) Brightness Sun altitude
Exits shadow 21:27:44 20° 199° (SSW) 1,387 4.6 -18.6°
Maximum altitude 21:30:35 67° 278° (W) 649 3.2 -19.0°
Drops below altitude 10° 21:34:51 10° 2° (N) 1,936 6.3 -19.5°
Sets 21:37:05 0° 5° (N) 2,840 7.2 -19.8°
